sat.trackr.live / text

‹ back to catalog

STARLINK-31021

NORAD 58518 · 2023-191L

PAYLOAD ACTIVE UNKNOWN

§ Identity

Operator
Country
US
Launch date
2023-12-07
Launch site
AFETR
Launch vehicle
Mass (kg)
RCS (m²)

Purposes: comms

External: N2YO · Heavens-Above · Gunter

§ Orbital elements

Epoch: 2026-09-20T21:35:27.275136Z

Period
94.27 min
Inclination
43.0029°
Eccentricity
0.0001544
Mean motion
15.27576355 rev/d
Perigee alt
482.0 km
Apogee alt
484.1 km
Semi-major
6,861.2 km
B*
1.6882e-5
RAAN
81.1826°
Arg perigee
273.5182°
Mean anomaly
86.5493°
Rev number
15,532

§ Raw data

STARLINK-310211 58518U 23191L   26263.89962124  .00000202  00000+0  16882-4 0  99952 58518  43.0029  81.1826 0001544 273.5182  86.5493 15.27576355155322

JSON: /api/v1/satellites/58518 · /tle

For live sub-satellite position, see the globe view (requires WebGL).

§ Visibility from observer

Set your observer location to see the next 7 days of passes ≥ 10°. The values pass through the URL so the page stays shareable.

No JS? Fill the form by hand. The geolocation button needs JavaScript.